Point Salines, Grenada

8:53 AM AST on April 22, 2018 (GMT -0400)
Point Salines International

Weather History for TGPY - June, 2014

Change the Weather History Date:

Friday, June 13, 2014

  Actual Average Record
Temperature  
Mean Temperature 81 °F -  
Max Temperature 87 °F 84 °F 102 °F (2017)
Min Temperature 75 °F 76 °F 69 °F (2001)
Cooling Degree Days 16    
Growing Degree Days 31 (Base 50)    
Moisture  
Dew Point 77 °F    
Average Humidity 85    
Maximum Humidity 94    
Minimum Humidity 69    
Precipitation  
Precipitation 0.08 in - - ()
Sea Level Pressure  
Sea Level Pressure 29.95 in    
Wind  
Wind Speed 13 mph ()    
Max Wind Speed 24 mph    
Max Gust Speed 32 mph    
Visibility 7.2 miles    
Events Rain    
Averages and records for this station are not official NWS values.
T = Trace of Precipitation, MM = Missing Value Source: Averaged Metar Reports

Daily Weather History Graph

Daily Weather History Graph

Search for Another Location

Airport or City:

Astronomy

Jun. 13, 2014 Rise Set
Actual Time 5:42 AM AST 6:31 PM AST
Civil Twilight 5:19 AM AST 6:55 PM AST
Nautical Twilight 4:51 AM AST 7:22 PM AST
Astronomical Twilight 4:24 AM AST 7:50 PM AST
Moon 7:11 PM AST (6/13) 6:05 AM AST (6/13)
Length of Visible Light 13h 35m
Length of Day
12h 49m
Full, 100% of the Moon is Illuminated
Jun 13
Full
Jun 19
Last Quarter
Jun 27
New
Jul 5
First Quarter
Jul 12
Full

Hourly Weather History & Observations

Time (AST) Temp. Heat Index Dew Point Humidity Pressure Visibility Wind Dir Wind Speed Gust Speed Precip Events Conditions
12:00 AM 78.8 °F - 77.0 °F 94% 29.98 in 6.2 mi East 5.8 mph - N/A   Mostly Cloudy
1:00 AM 78.8 °F - 77.0 °F 94% 29.95 in 6.2 mi East 13.8 mph - N/A   Scattered Clouds
2:00 AM 78 °F - 76 °F 92% 29.94 in 10 mi East 11.5 mph - -   Widespread Dust
2:00 AM 78.8 °F - 77.0 °F 94% 29.92 in 6.2 mi East 11.5 mph - N/A   Scattered Clouds
3:00 AM 78.8 °F - 75.2 °F 89% - 6.2 mi East 16.1 mph - N/A   Scattered Clouds
4:00 AM 78.8 °F - 75.2 °F 89% 29.92 in 6.2 mi East 17.3 mph - N/A   Partly Cloudy
5:00 AM 79 °F - 76 °F 88% 29.94 in 10 mi East 13.8 mph - -   Widespread Dust
5:00 AM 78.8 °F - 77.0 °F 94% 29.92 in 6.2 mi East 13.8 mph - N/A   Scattered Clouds
6:00 AM 78.8 °F - 75.2 °F 89% 29.95 in 6.2 mi East 11.5 mph - N/A   Scattered Clouds
7:00 AM 80.6 °F 87.1 °F 77.0 °F 89% 29.95 in 6.2 mi East 10.4 mph - N/A   Partly Cloudy
8:00 AM 83 °F - 77 °F 77% 29.97 in 7 mi East 18.4 mph - -   Scattered Clouds
8:00 AM 82.4 °F 90.9 °F 77.0 °F 84% 29.95 in 6.2 mi East 18.4 mph - N/A   Partly Cloudy
9:00 AM 80.6 °F 88.1 °F 78.8 °F 94% 29.98 in 6.2 mi ESE 17.3 mph - N/A Rain Light Rain Showers
10:00 AM 80.6 °F 88.1 °F 78.8 °F 94% 30.01 in 5.0 mi ESE 17.3 mph - N/A Rain Light Rain Showers
11:00 AM 82 °F - 78 °F 86% 29.98 in 9 mi ESE 18.4 mph - - Rain Light Rain Showers
11:00 AM 82.4 °F 92.4 °F 78.8 °F 89% 29.98 in 6.2 mi ESE 18.4 mph - N/A Rain Light Rain Showers
12:00 PM 86.0 °F 96.9 °F 77.0 °F 74% 29.98 in 6.2 mi ESE 20.7 mph 32.2 mph N/A   Partly Cloudy
1:00 PM 86.0 °F 99.3 °F 78.8 °F 79% 29.95 in 6.2 mi SE 17.3 mph - N/A   Scattered Clouds
2:00 PM 86 °F - 77 °F 69% 29.94 in 14 mi ESE 20.7 mph - -   Widespread Dust
2:00 PM 86.0 °F 96.9 °F 77.0 °F 74% 29.92 in 6.2 mi ESE 20.7 mph - N/A   Partly Cloudy
3:00 PM 86.0 °F 96.9 °F 77.0 °F 74% 29.92 in 6.2 mi ESE 24.2 mph - N/A   Partly Cloudy
4:00 PM 86.0 °F 96.9 °F 77.0 °F 74% 29.92 in 6.2 mi East 18.4 mph 29.9 mph N/A   Scattered Clouds
5:00 PM 84 °F - 77 °F 75% 29.91 in 12 mi ESE 20.7 mph - -   Widespread Dust
5:00 PM 84.2 °F 94.1 °F 77.0 °F 79% 29.89 in 6.2 mi ESE 20.7 mph - N/A   Scattered Clouds
6:00 PM 82.4 °F 90.9 °F 77.0 °F 84% 29.89 in 6.2 mi ESE 15.0 mph - N/A   Partly Cloudy
7:00 PM 82.4 °F 90.9 °F 77.0 °F 84% 29.92 in 6.2 mi ESE 16.1 mph - N/A   Partly Cloudy
8:00 PM 82 °F - 77 °F 82% 29.95 in 11 mi ESE 16.1 mph - -   Widespread Dust
8:00 PM 82.4 °F 90.9 °F 77.0 °F 84% 29.95 in 6.2 mi ESE 16.1 mph - N/A   Scattered Clouds
9:00 PM 80.6 °F 87.1 °F 77.0 °F 89% 29.95 in 6.2 mi East 17.3 mph - N/A   Mostly Cloudy
10:00 PM 80.6 °F 87.1 °F 77.0 °F 89% 29.98 in 6.2 mi East 17.3 mph - N/A   Partly Cloudy
11:00 PM 81 °F - 77 °F 84% 29.99 in 11 mi East 16.1 mph - -   Widespread Dust
11:00 PM 80.6 °F 87.1 °F 77.0 °F 89% 29.98 in 6.2 mi East 16.1 mph - N/A   Partly Cloudy